Flag for Germany Weather past 2 weeks in Dorsten, North Rhine-Westphalia, Germany

36 °F

Light rain. Low clouds.

Feels Like: 33 °F
Forecast: 35 / 44 °F
Wind: 3 mph from South

Location: Essen

Current Time: Nov 25, 2015 at 5:29:56 AM

Latest Report: Nov 25, 2015 at 4:00 AM

Visibility: 3 mi

Pressure: 29.71 "Hg

Humidity: 100%

Dew point: 36 °F

Location of DorstenLocation

Historic Weather in Dorsten — Graph


Dorsten temperature yesterday

Maximum temperature yesterday: 38 °F (at 2:00 PM)
Minimum temperature yesterday: 33 °F (at 6:00 PM)
Average temperature yesterday: 35 °F

Past Weeks' High & Low Weather Summary

High59 °F (Nov 17, 9:00 PM)100% (Nov 17, 4:00 AM)30.32 "Hg (Nov 17, 4:00 AM)
Low32 °F (Nov 22, 8:00 AM)63% (Nov 23, 2:00 PM)29.38 "Hg (Nov 21, 12:00 PM)
Average48 °F85%29.97 "Hg
* Reported Nov 10 3:00 AM — Nov 25 3:00 AM, Dorsten, Weather by CustomWeather, © 2015

Note: Actual official high and low records may vary slightly from our data, if they occured in-between our weather recording intervals... More about our weather records


Dorsten weather history for previous 24 hours

Time TempWeatherWind HumidityBarometerVisibility
3:00 AM
Wed, Nov 25
35 °FDrizzle. Low clouds.3 mph100%29.72 "Hg3 mi
2:00 AM35 °FLight rain. Low clouds.3 mph99%29.74 "Hg2 mi
1:00 AM35 °FDrizzle. Low clouds.3 mph99%29.75 "Hg6 mi
12:00 AM34 °FLight freezing rain. Low clouds.5 mph100%29.78 "Hg4 mi
10:00 PM
Tue, Nov 24
34 °FFreezing rain. Low clouds.5 mph100%29.81 "Hg3 mi
9:00 PM33 °FSnow. Low clouds.5 mph99%29.82 "Hg1 mi
8:00 PM33 °FSnow. Low clouds.5 mph100%29.84 "Hg1 mi
7:00 PM33 °FLight snow. Low clouds.6 mph99%29.86 "Hg2 mi
6:00 PM33 °FSnow. Low clouds.6 mph98%29.88 "Hg2 mi
5:00 PM33 °FLight snow. Low clouds.7 mph97%29.89 "Hg4 mi
4:00 PM34 °FLight snow. Low clouds.7 mph95%29.92 "Hg2 mi
3:00 PM36 °FLight snow. Overcast.7 mph77%29.96 "Hg7 mi
2:00 PM38 °FOvercast.6 mph70%29.98 "Hg18 mi
1:00 PM37 °FOvercast.6 mph73%30.02 "Hg17 mi
12:00 PM37 °FOvercast.6 mph75%30.06 "Hg16 mi
11:00 AM37 °FOvercast.6 mph73%30.09 "Hg19 mi
10:00 AM36 °FOvercast.6 mph74%30.10 "Hg19 mi
9:00 AM36 °FOvercast.5 mph75%30.12 "Hg19 mi
7:00 AM35 °FOvercast.3 mph77%30.15 "Hg19 mi
5:00 AM35 °FOvercast.3 mph77%30.18 "Hg19 mi
Weather by CustomWeather, © 2015

See weather overviewHow to use our weather pages